Time,TemperatureF,DewpointF,PressureIn,WindDirection,WindDirectionDegrees,WindSpeedMPH,WindSpeedGustMPH,Humidity,HourlyPrecipIn,Conditions,Clouds,dailyrainin,SolarRadiationWatts/m^2,SoftwareType,DateUTC
2013-05-03 00:01:00,50.0,39.0,-100.00,South,187,4.0,9.0,65,0.00,,,0.00,0.000000,,2013-05-03 04:01:00,
2013-05-03 00:32:00,50.0,39.0,-100.00,South,187,4.0,9.0,65,0.00,,,0.00,0.000000,,2013-05-03 04:32:00,
2013-05-03 00:43:00,50.0,39.0,-100.00,South,187,4.0,9.0,65,0.00,,,0.00,0.000000,,2013-05-03 04:43:00,
2013-05-03 00:53:00,50.0,39.0,-100.00,South,187,4.0,9.0,65,0.00,,,0.00,0.000000,,2013-05-03 04:53:00,
2013-05-03 01:01:00,48.0,36.0,-100.00,SE,140,3.0,8.0,62,0.00,,,0.00,0.000000,,2013-05-03 05:01:00,
2013-05-03 01:22:00,48.0,36.0,-100.00,SE,140,3.0,8.0,62,0.00,,,0.00,0.000000,,2013-05-03 05:22:00,
2013-05-03 01:32:00,48.0,36.0,-100.00,SE,140,3.0,8.0,62,0.00,,,0.00,0.000000,,2013-05-03 05:32:00,
2013-05-03 01:42:00,48.0,36.0,-100.00,SE,140,3.0,8.0,62,0.00,,,0.00,0.000000,,2013-05-03 05:42:00,
2013-05-03 01:52:00,48.0,36.0,-100.00,SE,140,3.0,8.0,62,0.00,,,0.00,0.000000,,2013-05-03 05:52:00,
2013-05-03 02:01:00,47.0,37.0,-100.00,SSE,158,4.0,9.0,68,0.00,,,0.00,0.000000,,2013-05-03 06:01:00,
2013-05-03 02:32:00,47.0,37.0,-100.00,SSE,158,4.0,9.0,68,0.00,,,0.00,0.000000,,2013-05-03 06:32:00,
2013-05-03 02:42:00,47.0,37.0,-100.00,SSE,158,4.0,9.0,68,0.00,,,0.00,0.000000,,2013-05-03 06:42:00,
2013-05-03 02:52:00,47.0,37.0,-100.00,SSE,158,4.0,9.0,68,0.00,,,0.00,0.000000,,2013-05-03 06:52:00,
2013-05-03 03:01:00,45.0,38.0,-100.00,SSE,148,3.0,7.0,76,0.00,,,0.00,0.000000,,2013-05-03 07:01:00,
2013-05-03 03:22:00,45.0,38.0,-100.00,SSE,148,3.0,7.0,76,0.00,,,0.00,0.000000,,2013-05-03 07:22:00,
2013-05-03 03:32:00,45.0,38.0,-100.00,SSE,148,3.0,7.0,76,0.00,,,0.00,0.000000,,2013-05-03 07:32:00,
2013-05-03 03:42:00,45.0,38.0,-100.00,SSE,148,3.0,7.0,76,0.00,,,0.00,0.000000,,2013-05-03 07:42:00,
2013-05-03 03:52:00,45.0,38.0,-100.00,SSE,148,3.0,7.0,76,0.00,,,0.00,0.000000,,2013-05-03 07:52:00,
2013-05-03 04:01:00,44.0,39.0,-100.00,ESE,113,2.0,5.0,83,0.00,,,0.00,0.000000,,2013-05-03 08:01:00,
2013-05-03 04:22:00,44.0,39.0,-100.00,ESE,113,2.0,5.0,83,0.00,,,0.00,0.000000,,2013-05-03 08:22:00,
2013-05-03 04:32:00,44.0,39.0,-100.00,ESE,113,2.0,5.0,83,0.00,,,0.00,0.000000,,2013-05-03 08:32:00,
2013-05-03 04:42:00,44.0,39.0,-100.00,ESE,113,2.0,5.0,83,0.00,,,0.00,0.000000,,2013-05-03 08:42:00,
2013-05-03 04:53:00,44.0,39.0,-100.00,ESE,113,2.0,5.0,83,0.00,,,0.00,0.000000,,2013-05-03 08:53:00,
2013-05-03 05:01:00,44.0,40.0,-100.00,SE,126,3.0,5.0,85,0.00,,,0.00,0.000000,,2013-05-03 09:01:00,
2013-05-03 05:21:00,44.0,40.0,-100.00,SE,126,3.0,5.0,85,0.00,,,0.00,0.000000,,2013-05-03 09:21:00,
2013-05-03 05:33:00,44.0,40.0,-100.00,SE,126,3.0,5.0,85,0.00,,,0.00,0.000000,,2013-05-03 09:33:00,
2013-05-03 05:42:00,44.0,40.0,-100.00,SE,126,3.0,5.0,85,0.00,,,0.00,0.000000,,2013-05-03 09:42:00,
2013-05-03 05:53:00,44.0,40.0,-100.00,SE,126,3.0,5.0,85,0.00,,,0.00,0.000000,,2013-05-03 09:53:00,
2013-05-03 06:01:00,44.0,41.0,-100.00,SE,132,2.0,6.0,88,0.00,,,0.00,0.000000,,2013-05-03 10:01:00,
2013-05-03 06:32:00,44.0,41.0,-100.00,SE,132,2.0,6.0,88,0.00,,,0.00,0.000000,,2013-05-03 10:32:00,
2013-05-03 06:42:00,44.0,41.0,-100.00,SE,132,2.0,6.0,88,0.00,,,0.00,0.000000,,2013-05-03 10:42:00,
2013-05-03 06:52:00,44.0,41.0,-100.00,SE,132,2.0,6.0,88,0.00,,,0.00,0.000000,,2013-05-03 10:52:00,
2013-05-03 07:01:00,44.0,40.0,-100.00,ESE,120,2.0,7.0,86,0.00,,,0.00,12.000000,,2013-05-03 11:01:00,
2013-05-03 07:32:00,44.0,40.0,-100.00,ESE,120,2.0,7.0,86,0.00,,,0.00,12.000000,,2013-05-03 11:32:00,
2013-05-03 07:42:00,44.0,40.0,-100.00,ESE,120,2.0,7.0,86,0.00,,,0.00,12.000000,,2013-05-03 11:42:00,
2013-05-03 07:52:00,44.0,40.0,-100.00,ESE,120,2.0,7.0,86,0.00,,,0.00,12.000000,,2013-05-03 11:52:00,
2013-05-03 08:01:00,47.0,41.0,-100.00,SW,227,2.0,5.0,79,0.00,,,0.00,101.000000,,2013-05-03 12:01:00,
2013-05-03 08:22:00,47.0,41.0,-100.00,SW,227,2.0,5.0,79,0.00,,,0.00,101.000000,,2013-05-03 12:22:00,
2013-05-03 08:32:00,47.0,41.0,-100.00,SW,227,2.0,5.0,79,0.00,,,0.00,101.000000,,2013-05-03 12:32:00,
2013-05-03 08:42:00,47.0,41.0,-100.00,SW,227,2.0,5.0,79,0.00,,,0.00,101.000000,,2013-05-03 12:42:00,
2013-05-03 08:52:00,47.0,41.0,-100.00,SW,227,2.0,5.0,79,0.00,,,0.00,101.000000,,2013-05-03 12:52:00,
2013-05-03 09:01:00,51.0,38.0,-100.00,SSE,149,5.0,9.0,62,0.00,,,0.00,314.000000,,2013-05-03 13:01:00,
2013-05-03 09:32:00,51.0,38.0,-100.00,SSE,149,5.0,9.0,62,0.00,,,0.00,314.000000,,2013-05-03 13:32:00,
2013-05-03 09:42:00,51.0,38.0,-100.00,SSE,149,5.0,9.0,62,0.00,,,0.00,314.000000,,2013-05-03 13:42:00,
2013-05-03 09:52:00,51.0,38.0,-100.00,SSE,149,5.0,9.0,62,0.00,,,0.00,314.000000,,2013-05-03 13:52:00,
2013-05-03 10:01:00,55.0,35.0,-100.00,South,176,6.0,14.0,47,0.00,,,0.00,640.000000,,2013-05-03 14:01:00,
2013-05-03 10:32:00,55.0,35.0,-100.00,South,176,6.0,14.0,47,0.00,,,0.00,640.000000,,2013-05-03 14:32:00,
2013-05-03 10:42:00,55.0,35.0,-100.00,South,176,6.0,14.0,47,0.00,,,0.00,640.000000,,2013-05-03 14:42:00,
2013-05-03 10:52:00,55.0,35.0,-100.00,South,176,6.0,14.0,47,0.00,,,0.00,640.000000,,2013-05-03 14:52:00,
2013-05-03 11:01:00,59.0,35.0,-100.00,SSE,165,7.0,14.0,41,0.00,,,0.00,835.000000,,2013-05-03 15:01:00,
2013-05-03 11:32:00,59.0,35.0,-100.00,SSE,165,7.0,14.0,41,0.00,,,0.00,835.000000,,2013-05-03 15:32:00,
2013-05-03 11:43:00,59.0,35.0,-100.00,SSE,165,7.0,14.0,41,0.00,,,0.00,835.000000,,2013-05-03 15:43:00,
2013-05-03 11:53:00,59.0,35.0,-100.00,SSE,165,7.0,14.0,41,0.00,,,0.00,835.000000,,2013-05-03 15:53:00,
2013-05-03 12:01:00,62.0,34.0,-100.00,SSE,164,6.0,16.0,35,0.00,,,0.00,980.000000,,2013-05-03 16:01:00,
2013-05-03 12:33:00,62.0,34.0,-100.00,SSE,164,6.0,16.0,35,0.00,,,0.00,980.000000,,2013-05-03 16:33:00,
2013-05-03 12:42:00,62.0,34.0,-100.00,SSE,164,6.0,16.0,35,0.00,,,0.00,980.000000,,2013-05-03 16:42:00,
2013-05-03 12:52:00,62.0,34.0,-100.00,SSE,164,6.0,16.0,35,0.00,,,0.00,980.000000,,2013-05-03 16:52:00,
2013-05-03 13:01:00,61.0,32.0,-100.00,South,170,8.0,19.0,34,0.00,,,0.00,1090.000000,,2013-05-03 17:01:00,
2013-05-03 13:23:00,61.0,32.0,-100.00,South,170,8.0,19.0,34,0.00,,,0.00,1090.000000,,2013-05-03 17:23:00,
2013-05-03 13:32:00,61.0,32.0,-100.00,South,170,8.0,19.0,34,0.00,,,0.00,1090.000000,,2013-05-03 17:32:00,
2013-05-03 13:42:00,61.0,32.0,-100.00,South,170,8.0,19.0,34,0.00,,,0.00,1090.000000,,2013-05-03 17:42:00,
2013-05-03 13:52:00,61.0,32.0,-100.00,South,170,8.0,19.0,34,0.00,,,0.00,1090.000000,,2013-05-03 17:52:00,
2013-05-03 14:01:00,61.0,36.0,-100.00,South,182,7.0,18.0,40,0.00,,,0.00,977.000000,,2013-05-03 18:01:00,
2013-05-03 14:32:00,61.0,36.0,-100.00,South,182,7.0,18.0,40,0.00,,,0.00,977.000000,,2013-05-03 18:32:00,
2013-05-03 14:42:00,61.0,36.0,-100.00,South,182,7.0,18.0,40,0.00,,,0.00,977.000000,,2013-05-03 18:42:00,
2013-05-03 14:52:00,61.0,36.0,-100.00,South,182,7.0,18.0,40,0.00,,,0.00,977.000000,,2013-05-03 18:52:00,
2013-05-03 15:01:00,62.0,39.0,-100.00,South,182,6.0,21.0,43,0.00,,,0.00,969.000000,,2013-05-03 19:01:00,
2013-05-03 15:32:00,62.0,39.0,-100.00,South,182,6.0,21.0,43,0.00,,,0.00,969.000000,,2013-05-03 19:32:00,
2013-05-03 15:42:00,62.0,39.0,-100.00,South,182,6.0,21.0,43,0.00,,,0.00,969.000000,,2013-05-03 19:42:00,
2013-05-03 15:52:00,62.0,39.0,-100.00,South,182,6.0,21.0,43,0.00,,,0.00,969.000000,,2013-05-03 19:52:00,
2013-05-03 16:01:00,63.0,41.0,-100.00,South,179,8.0,21.0,44,0.00,,,0.00,886.000000,,2013-05-03 20:01:00,
2013-05-03 16:32:00,63.0,41.0,-100.00,South,179,8.0,21.0,44,0.00,,,0.00,886.000000,,2013-05-03 20:32:00,
2013-05-03 16:42:00,63.0,41.0,-100.00,South,179,8.0,21.0,44,0.00,,,0.00,886.000000,,2013-05-03 20:42:00,
2013-05-03 16:52:00,63.0,41.0,-100.00,South,179,8.0,21.0,44,0.00,,,0.00,886.000000,,2013-05-03 20:52:00,
2013-05-03 17:01:00,60.0,40.0,-100.00,South,185,9.0,24.0,47,0.00,,,0.00,677.000000,,2013-05-03 21:01:00,
2013-05-03 17:33:00,60.0,40.0,-100.00,South,185,9.0,24.0,47,0.00,,,0.00,677.000000,,2013-05-03 21:33:00,
2013-05-03 17:43:00,60.0,40.0,-100.00,South,185,9.0,24.0,47,0.00,,,0.00,677.000000,,2013-05-03 21:43:00,
2013-05-03 17:53:00,60.0,40.0,-100.00,South,185,9.0,24.0,47,0.00,,,0.00,677.000000,,2013-05-03 21:53:00,
2013-05-03 20:01:00,53.0,41.0,-100.00,SSE,158,5.0,14.0,63,-99.99,,,0.00,21.000000,,2013-05-04 00:01:00,
2013-05-03 20:32:00,53.0,41.0,-100.00,SSE,158,5.0,14.0,63,-99.99,,,0.00,21.000000,,2013-05-04 00:32:00,
2013-05-03 20:42:00,53.0,41.0,-100.00,SSE,158,5.0,14.0,63,-99.99,,,0.00,21.000000,,2013-05-04 00:42:00,
2013-05-03 20:52:00,53.0,41.0,-100.00,SSE,158,5.0,14.0,63,-99.99,,,0.00,21.000000,,2013-05-04 00:52:00,
2013-05-03 21:01:00,51.0,40.0,-100.00,SSE,164,5.0,14.0,66,0.00,,,0.00,1.000000,,2013-05-04 01:01:00,
2013-05-03 21:32:00,51.0,40.0,-100.00,SSE,164,5.0,14.0,66,0.00,,,0.00,1.000000,,2013-05-04 01:32:00,
2013-05-03 21:42:00,51.0,40.0,-100.00,SSE,164,5.0,14.0,66,0.00,,,0.00,1.000000,,2013-05-04 01:42:00,
2013-05-03 21:52:00,51.0,40.0,-100.00,SSE,164,5.0,14.0,66,0.00,,,0.00,1.000000,,2013-05-04 01:52:00,
2013-05-03 22:01:00,51.0,38.0,-100.00,SSE,154,5.0,13.0,62,0.00,,,0.00,0.000000,,2013-05-04 02:01:00,
2013-05-03 22:21:00,51.0,38.0,-100.00,SSE,154,5.0,13.0,62,0.00,,,0.00,0.000000,,2013-05-04 02:21:00,
2013-05-03 22:32:00,51.0,38.0,-100.00,SSE,154,5.0,13.0,62,0.00,,,0.00,0.000000,,2013-05-04 02:32:00,
2013-05-03 22:42:00,51.0,38.0,-100.00,SSE,154,5.0,13.0,62,0.00,,,0.00,0.000000,,2013-05-04 02:42:00,
2013-05-03 22:52:00,51.0,38.0,-100.00,SSE,154,5.0,13.0,62,0.00,,,0.00,0.000000,,2013-05-04 02:52:00,
2013-05-03 23:01:00,49.0,37.0,-100.00,South,173,7.0,15.0,63,0.00,,,0.00,0.000000,,2013-05-04 03:01:00,
2013-05-03 23:22:00,49.0,37.0,-100.00,South,173,7.0,15.0,63,0.00,,,0.00,0.000000,,2013-05-04 03:22:00,
2013-05-03 23:33:00,49.0,37.0,-100.00,South,173,7.0,15.0,63,0.00,,,0.00,0.000000,,2013-05-04 03:33:00,
2013-05-03 23:43:00,49.0,37.0,-100.00,South,173,7.0,15.0,63,0.00,,,0.00,0.000000,,2013-05-04 03:43:00,
2013-05-03 23:53:00,49.0,37.0,-100.00,South,173,7.0,15.0,63,0.00,,,0.00,0.000000,,2013-05-04 03:53:00,